Time,TemperatureF,DewpointF,PressureIn,WindDirection,WindDirectionDegrees,WindSpeedMPH,WindSpeedGustMPH,Humidity,HourlyPrecipIn,Conditions,Clouds,dailyrainin,SolarRadiationWatts/m^2,SoftwareType,DateUTC
2013-03-23 00:00:00,25.0,20.0,-100.00,West,270,0.0,-999.0,82,-99.99,,,-99.99,0.000000,,2013-03-23 04:00:00,
2013-03-23 00:43:00,25.0,20.0,-100.00,West,270,0.0,-999.0,82,-99.99,,,-99.99,0.000000,,2013-03-23 04:43:00,
2013-03-23 00:53:00,25.0,20.0,-100.00,West,270,0.0,-999.0,82,-99.99,,,-99.99,0.000000,,2013-03-23 04:53:00,
2013-03-23 01:00:00,22.0,19.0,-100.00,West,270,0.0,-999.0,88,-99.99,,,-99.99,0.000000,,2013-03-23 05:00:00,
2013-03-23 01:42:00,22.0,19.0,-100.00,West,270,0.0,-999.0,88,-99.99,,,-99.99,0.000000,,2013-03-23 05:42:00,
2013-03-23 01:53:00,22.0,19.0,-100.00,West,270,0.0,-999.0,88,-99.99,,,-99.99,0.000000,,2013-03-23 05:53:00,
2013-03-23 02:00:00,22.0,20.0,-100.00,SW,225,0.0,-999.0,91,-99.99,,,-99.99,0.000000,,2013-03-23 06:00:00,
2013-03-23 02:42:00,22.0,20.0,-100.00,SW,225,0.0,-999.0,91,-99.99,,,-99.99,0.000000,,2013-03-23 06:42:00,
2013-03-23 02:52:00,22.0,20.0,-100.00,SW,225,0.0,-999.0,91,-99.99,,,-99.99,0.000000,,2013-03-23 06:52:00,
2013-03-23 03:00:00,22.0,19.0,-100.00,WSW,247,0.0,-999.0,91,-99.99,,,-99.99,0.000000,,2013-03-23 07:00:00,
2013-03-23 03:42:00,22.0,19.0,-100.00,WSW,247,0.0,-999.0,91,-99.99,,,-99.99,0.000000,,2013-03-23 07:42:00,
2013-03-23 03:52:00,22.0,19.0,-100.00,WSW,247,0.0,-999.0,91,-99.99,,,-99.99,0.000000,,2013-03-23 07:52:00,
2013-03-23 04:00:00,21.0,20.0,-100.00,West,270,0.0,-999.0,93,-99.99,,,-99.99,0.000000,,2013-03-23 08:00:00,
2013-03-23 04:42:00,21.0,20.0,-100.00,West,270,0.0,-999.0,93,-99.99,,,-99.99,0.000000,,2013-03-23 08:42:00,
2013-03-23 04:53:00,21.0,20.0,-100.00,West,270,0.0,-999.0,93,-99.99,,,-99.99,0.000000,,2013-03-23 08:53:00,
2013-03-23 05:00:00,20.0,19.0,-100.00,SW,225,1.0,-999.0,94,-99.99,,,-99.99,0.000000,,2013-03-23 09:00:00,
2013-03-23 05:43:00,20.0,19.0,-100.00,SW,225,1.0,-999.0,94,-99.99,,,-99.99,0.000000,,2013-03-23 09:43:00,
2013-03-23 05:53:00,20.0,19.0,-100.00,SW,225,1.0,-999.0,94,-99.99,,,-99.99,0.000000,,2013-03-23 09:53:00,
2013-03-23 06:00:00,20.0,19.0,-100.00,West,270,0.0,-999.0,94,-99.99,,,-99.99,0.000000,,2013-03-23 10:00:00,
2013-03-23 06:43:00,20.0,19.0,-100.00,West,270,0.0,-999.0,94,-99.99,,,-99.99,0.000000,,2013-03-23 10:43:00,
2013-03-23 06:53:00,20.0,19.0,-100.00,West,270,0.0,-999.0,94,-99.99,,,-99.99,0.000000,,2013-03-23 10:53:00,
2013-03-23 07:00:00,20.0,19.0,-100.00,SSW,202,1.0,-999.0,95,-99.99,,,-99.99,0.000000,,2013-03-23 11:00:00,
2013-03-23 07:42:00,20.0,19.0,-100.00,SSW,202,1.0,-999.0,95,-99.99,,,-99.99,0.000000,,2013-03-23 11:42:00,
2013-03-23 07:52:00,20.0,19.0,-100.00,SSW,202,1.0,-999.0,95,-99.99,,,-99.99,0.000000,,2013-03-23 11:52:00,
2013-03-23 08:00:00,21.0,20.0,-100.00,WSW,247,2.0,-999.0,94,-99.99,,,-99.99,4.640000,,2013-03-23 12:00:00,
2013-03-23 08:43:00,21.0,20.0,-100.00,WSW,247,2.0,-999.0,94,-99.99,,,-99.99,4.640000,,2013-03-23 12:43:00,
2013-03-23 08:53:00,21.0,20.0,-100.00,WSW,247,2.0,-999.0,94,-99.99,,,-99.99,4.640000,,2013-03-23 12:53:00,
2013-03-23 09:00:00,25.0,21.0,-100.00,WSW,247,2.0,-999.0,87,-99.99,,,-99.99,87.000000,,2013-03-23 13:00:00,
2013-03-23 09:43:00,25.0,21.0,-100.00,WSW,247,2.0,-999.0,87,-99.99,,,-99.99,87.000000,,2013-03-23 13:43:00,
2013-03-23 09:53:00,25.0,21.0,-100.00,WSW,247,2.0,-999.0,87,-99.99,,,-99.99,87.000000,,2013-03-23 13:53:00,
2013-03-23 10:00:00,31.0,23.0,-100.00,East,90,4.0,-999.0,72,-99.99,,,-99.99,258.679993,,2013-03-23 14:00:00,
2013-03-23 10:43:00,31.0,23.0,-100.00,East,90,4.0,-999.0,72,-99.99,,,-99.99,258.679993,,2013-03-23 14:43:00,
2013-03-23 10:53:00,31.0,23.0,-100.00,East,90,4.0,-999.0,72,-99.99,,,-99.99,258.679993,,2013-03-23 14:53:00,
2013-03-23 11:00:00,32.0,22.0,-100.00,East,90,4.0,-999.0,65,-99.99,,,-99.99,411.799988,,2013-03-23 15:00:00,
2013-03-23 11:44:00,32.0,22.0,-100.00,East,90,4.0,-999.0,65,-99.99,,,-99.99,411.799988,,2013-03-23 15:44:00,
2013-03-23 11:53:00,32.0,22.0,-100.00,East,90,4.0,-999.0,65,-99.99,,,-99.99,411.799988,,2013-03-23 15:53:00,
2013-03-23 12:00:00,32.0,22.0,-100.00,SE,135,2.0,-999.0,65,-99.99,,,-99.99,293.480011,,2013-03-23 16:00:00,
2013-03-23 12:43:00,32.0,22.0,-100.00,SE,135,2.0,-999.0,65,-99.99,,,-99.99,293.480011,,2013-03-23 16:43:00,
2013-03-23 12:54:00,32.0,22.0,-100.00,SE,135,2.0,-999.0,65,-99.99,,,-99.99,293.480011,,2013-03-23 16:54:00,
2013-03-23 13:00:00,33.0,22.0,-100.00,SW,225,4.0,-999.0,61,-99.99,,,-99.99,331.760010,,2013-03-23 17:00:00,
2013-03-23 13:43:00,33.0,22.0,-100.00,SW,225,4.0,-999.0,61,-99.99,,,-99.99,331.760010,,2013-03-23 17:43:00,
2013-03-23 13:53:00,33.0,22.0,-100.00,SW,225,4.0,-999.0,61,-99.99,,,-99.99,331.760010,,2013-03-23 17:53:00,
2013-03-23 14:00:00,34.0,21.0,-100.00,SSW,202,5.0,-999.0,57,-99.99,,,-99.99,491.839996,,2013-03-23 18:00:00,
2013-03-23 14:43:00,34.0,21.0,-100.00,SSW,202,5.0,-999.0,57,-99.99,,,-99.99,491.839996,,2013-03-23 18:43:00,
2013-03-23 14:53:00,34.0,21.0,-100.00,SSW,202,5.0,-999.0,57,-99.99,,,-99.99,491.839996,,2013-03-23 18:53:00,
2013-03-23 15:00:00,37.0,22.0,-100.00,South,180,6.0,-999.0,53,-99.99,,,-99.99,655.400024,,2013-03-23 19:00:00,
2013-03-23 15:43:00,37.0,22.0,-100.00,South,180,6.0,-999.0,53,-99.99,,,-99.99,655.400024,,2013-03-23 19:43:00,
2013-03-23 15:53:00,37.0,22.0,-100.00,South,180,6.0,-999.0,53,-99.99,,,-99.99,655.400024,,2013-03-23 19:53:00,
2013-03-23 16:00:00,37.0,22.0,-100.00,East,90,6.0,-999.0,54,-99.99,,,-99.99,523.159973,,2013-03-23 20:00:00,
2013-03-23 16:43:00,37.0,22.0,-100.00,East,90,6.0,-999.0,54,-99.99,,,-99.99,523.159973,,2013-03-23 20:43:00,
2013-03-23 16:53:00,37.0,22.0,-100.00,East,90,6.0,-999.0,54,-99.99,,,-99.99,523.159973,,2013-03-23 20:53:00,
2013-03-23 17:00:00,37.0,22.0,-100.00,ESE,112,7.0,-999.0,54,-99.99,,,-99.99,466.320007,,2013-03-23 21:00:00,
2013-03-23 17:43:00,37.0,22.0,-100.00,ESE,112,7.0,-999.0,54,-99.99,,,-99.99,466.320007,,2013-03-23 21:43:00,
2013-03-23 17:54:00,37.0,22.0,-100.00,ESE,112,7.0,-999.0,54,-99.99,,,-99.99,466.320007,,2013-03-23 21:54:00,
2013-03-23 18:00:00,38.0,22.0,-100.00,East,90,6.0,-999.0,52,-99.99,,,-99.99,349.160004,,2013-03-23 22:00:00,
2013-03-23 18:43:00,38.0,22.0,-100.00,East,90,6.0,-999.0,52,-99.99,,,-99.99,349.160004,,2013-03-23 22:43:00,
2013-03-23 18:53:00,38.0,22.0,-100.00,East,90,6.0,-999.0,52,-99.99,,,-99.99,349.160004,,2013-03-23 22:53:00,
2013-03-23 19:00:00,36.0,21.0,-100.00,ENE,67,7.0,-999.0,55,-99.99,,,-99.99,139.199997,,2013-03-23 23:00:00,
2013-03-23 19:43:00,36.0,21.0,-100.00,ENE,67,7.0,-999.0,55,-99.99,,,-99.99,139.199997,,2013-03-23 23:43:00,
2013-03-23 19:53:00,36.0,21.0,-100.00,ENE,67,7.0,-999.0,55,-99.99,,,-99.99,139.199997,,2013-03-23 23:53:00,
2013-03-23 20:00:00,33.0,21.0,-100.00,East,90,6.0,-999.0,62,-99.99,,,-99.99,30.160000,,2013-03-24 00:00:00,
2013-03-23 20:42:00,33.0,21.0,-100.00,East,90,6.0,-999.0,62,-99.99,,,-99.99,30.160000,,2013-03-24 00:42:00,
2013-03-23 20:53:00,33.0,21.0,-100.00,East,90,6.0,-999.0,62,-99.99,,,-99.99,30.160000,,2013-03-24 00:53:00,
2013-03-23 21:00:00,29.0,21.0,-100.00,NNE,22,4.0,-999.0,70,-99.99,,,-99.99,0.000000,,2013-03-24 01:00:00,
2013-03-23 21:43:00,29.0,21.0,-100.00,NNE,22,4.0,-999.0,70,-99.99,,,-99.99,0.000000,,2013-03-24 01:43:00,
2013-03-23 21:53:00,29.0,21.0,-100.00,NNE,22,4.0,-999.0,70,-99.99,,,-99.99,0.000000,,2013-03-24 01:53:00,
2013-03-23 22:00:00,28.0,21.0,-100.00,NNE,22,5.0,-999.0,75,-99.99,,,-99.99,0.000000,,2013-03-24 02:00:00,
2013-03-23 22:43:00,28.0,21.0,-100.00,NNE,22,5.0,-999.0,75,-99.99,,,-99.99,0.000000,,2013-03-24 02:43:00,
2013-03-23 22:52:00,28.0,21.0,-100.00,NNE,22,5.0,-999.0,75,-99.99,,,-99.99,0.000000,,2013-03-24 02:52:00,
2013-03-23 23:00:00,27.0,23.0,-100.00,NE,45,7.0,-999.0,81,-99.99,,,-99.99,0.000000,,2013-03-24 03:00:00,
2013-03-23 23:43:00,27.0,23.0,-100.00,NE,45,7.0,-999.0,81,-99.99,,,-99.99,0.000000,,2013-03-24 03:43:00,
2013-03-23 23:53:00,27.0,23.0,-100.00,NE,45,7.0,-999.0,81,-99.99,,,-99.99,0.000000,,2013-03-24 03:53:00,